Temp
23 24 23 24 24 23 24 24 24 25 25 24 24 24 25 25 24 24 24 24 23 23 23 23 23 23 23 23 23 22 22 22 20 23 23 24 24 24 23 23 23 22 22
22 22 23 22 23 23 23 24 24 24 25 24 24 24 25 25 24 24 24 24 24 23 23 23 23 23 23 23 22 22 22 22 21 21 22 23 23 23 23 22 22 22 21
23 22 24 24 22 22 23 23 24 24 24 24 24 24 25 25 24 24 24 24 23 23 23 23 23 23 23 22 22 22 22 22 21 20 21 21 22 22 22 21 21 21 21
23 23 23 22 22 22 22 23 23 24 24 24 24 24 24 24 24 24 24 23 23 23 23 23 23 23 23 22 22 22 22 21 21 20 20 20 21 21 21 20 20 20 20
23 21 23 23 24 21 21 22 23 23 23 23 24 24 24 24 24 24 23 23 23 23 23 23 22 23 22 22 22 21 21 21 20 19 19 19 19 20 20 20 19 19 19
19 20 21 20 21 21 21 21 21 23 23 23 23 23 23 23 23 23 23 22 22 22 23 22 22 21 21 21 21 21 21 20 19 19 19 18 19 19 19 19 18 18 19
19 20 20 20 21 23 22 21 20 22 22 23 23 23 23 23 23 23 22 22 22 22 21 21 21 21 20 20 20 19 19 19 19 19 18 18 18 18 19 19 18 18 18
18 18 18 19 19 19 20 20 20 20 22 22 22 23 23 22 22 22 22 21 21 20 20 19 19 19 19 19 19 18 18 18 18 18 18 17 17 17 18 18 17 18 17
16 17 18 19 19 18 18 20 20 20 21 22 22 22 22 21 21 21 20 20 19 18 18 18 18 18 18 18 18 18 17 17 17 16 17 16 16 16 16 16 17 16 15
16 16 16 18 18 18 18 19 20 19 20 19 20 20 20 20 19 18 18 18 18 17 16 16 16 16 16 17 17 17 17 17 17 16 16 16 16 16 15 16 17 16 16
15 14 15 16 18 18 18 18 18 18 18 18 17 16 17 17 17 18 18 18 17 15 14 14 15 16 16 16 16 16 16 17 16 17 17 16 16 15 15 15 16 16 16
15 14 16 17 17 17 17 18 18 18 16 14 14 14 15 15 17 17 17 17 16 15 15 15 15 16 15 16 16 17 17 17 17 17 17 16 15 15 15 15 16 16 16
14 13 13 14 15 17 17 16 15 15 13 12 12 11 11 12 13 14 15 14 14 15 14 15 15 16 16 16 17 17 17 17 17 17 16 16 16 16 16 16 16 16 16
15 14 13 13 13 13 13 13 13 13 12 12 12 11 11 12 12 12 12 14 13 13 14 14 16 17 17 17 17 17 17 17 17 16 16 16 16 16 16 16 16 15 15
15 14 13 12 12 12 12 13 13 13 13 13 12 12 12 11 11 13 12 13 13 13 15 16 17 17 17 17 17 16 17 17 16 16 16 16 16 16 15 15 15 15 14
15 14 14 14 13 13 12 13 13 14 14 14 14 14 13 12 12 14 15 15 16 16 17 17 16 16 16 16 17 16 16 16 16 16 15 15 15 15 15 15 14 14 13
15 14 14 13 13 13 13 12 11 12 13 13 13 13 13 14 15 15 16 16 17 17 17 16 16 16 16 16 16 16 16 16 16 16 15 15 15 15 14 14 14 13 13
14 14 14 14 14 14 13 13 12 12 12 12 13 13 14 15 15 16 16 16 16 16 16 16 16 16 16 16 16 16 16 15 15 15 15 15 15 14 14 14 13 12 12
15 15 15 14 14 14 14 15 15 15 14 13 14 14 14 15 15 16 16 17 16 16 15 15 15 15 15 15 15 15 15 15 14 14 14 14 14 13 13 12 12 12 12
16 16 16 16 15 15 15 15 15 15 14 14 15 15 15 16 16 16 16 16 16 15 15 15 15 14 14 14 14 14 14 14 14 13 13 13 13 12 12 12 12 12 12
17 16 16 16 16 16 16 16 15 15 15 15 15 15 16 17 16 16 16 15 15 14 14 14 14 13 13 13 13 13 12 12 12 12 12 12 12 11 11 11 11 11 11
17 17 16 16 16 16 16 16 16 16 15 15 15 15 16 16 15 14 14 14 14 13 13 13 13 12 12 12 12 11 11 11 11 11 11 11 11 11 11 10 10 10 10
18 17 17 17 16 17 16 16 16 16 15 15 14 14 15 15 14 13 13 13 13 12 12 12 12 11 11 11 11 11 11 11 11 10 10 10 10 11 10 10 9 9 9
18 17 17 17 17 16 16 16 15 15 14 14 14 14 13 13 13 13 13 12 12 12 11 11 10 10 10 10 10 10 10 10 10 10 10 9 10 10 9 9 9 9 8
18 18 18 17 17 16 15 14 14 14 14 14 13 13 13 12 12 12 12 11 11 11 10 10 10 10 9 9 9 9 8 8 9 9 9 9 9 8 8 8 8 8 8
17 17 17 17 16 15 15 15 14 14 14 13 13 12 12 12 11 11 11 11 10 10 10 10 10 9 9 8 8 7 7 7 8 8 8 8 8 8 8 7 7 7 7
Height
797 798 801 805 810 815 817 819 821 822 824 826 827 830 831 834 836 838 839 841 842 842 842 842 842 842 841 841 841 841 840 840 838 834 833 831 830 830 830 828 826 825 824
790 795 797 801 805 809 813 815 817 819 821 823 824 825 826 828 831 833 835 836 838 838 838 838 838 838 838 838 838 837 837 836 835 832 830 829 829 828 827 826 825 824 823
787 789 792 794 798 803 806 810 813 815 818 819 821 822 822 824 826 828 829 831 832 832 833 833 834 834 834 834 834 834 833 832 832 830 828 827 827 826 825 824 823 822 822
780 782 785 788 790 793 798 803 807 810 813 815 816 817 819 821 823 824 825 826 827 827 828 829 829 830 830 830 830 830 830 829 829 828 827 826 826 825 824 823 822 821 820
775 776 776 775 781 787 791 793 799 803 806 809 811 811 813 815 817 819 821 821 822 822 823 825 823 827 828 827 827 827 827 826 826 825 825 824 824 824 823 822 821 820 819
775 774 774 779 780 781 782 785 788 794 798 802 804 806 808 810 813 814 816 818 819 819 820 821 822 824 825 825 826 825 825 823 823 822 822 821 820 820 821 820 820 821 819
770 772 773 774 773 774 775 775 778 783 791 794 797 800 803 805 808 810 812 814 815 816 819 821 821 822 823 824 824 823 823 822 822 822 822 821 821 821 821 820 820 820 821
764 765 765 765 766 766 766 770 772 778 782 786 791 794 797 800 802 805 808 811 812 815 817 818 820 821 821 822 822 822 822 822 821 821 822 821 821 822 822 821 821 820 820
759 757 756 757 756 759 761 760 765 770 773 778 782 786 791 794 797 800 803 807 809 813 816 818 818 820 820 820 821 822 822 821 821 821 820 820 821 821 822 820 819 819 820
755 751 748 747 747 747 750 753 754 758 767 773 775 780 784 789 793 797 800 805 807 812 816 818 819 820 820 819 821 821 822 821 821 821 820 819 820 821 822 821 821 821 822
750 744 735 731 735 740 744 748 753 757 762 767 772 777 781 786 790 794 799 802 805 810 813 817 818 819 819 820 820 823 823 823 821 820 820 819 819 820 821 821 821 821 821
748 740 724 723 728 733 738 741 740 749 759 765 769 775 780 784 788 791 796 801 805 809 812 815 816 816 820 819 821 824 823 823 820 820 821 821 821 823 822 821 821 821 821
750 743 734 727 727 729 734 737 740 746 755 762 766 772 779 784 789 793 795 801 805 808 811 816 812 821 823 823 822 824 824 823 821 822 823 823 823 824 824 823 822 822 821
754 750 745 740 736 736 737 739 744 748 752 759 761 771 778 784 790 799 803 800 803 807 812 818 814 821 825 825 824 824 824 823 823 824 825 825 825 825 825 825 823 822 820
763 759 756 752 749 746 744 745 750 752 757 759 758 765 777 789 794 793 805 804 807 810 819 820 818 821 824 826 825 825 825 824 824 826 826 826 826 825 825 824 824 823 822
766 767 764 761 760 756 756 755 760 762 769 771 772 775 782 793 796 798 805 809 813 814 819 820 821 824 825 826 827 827 826 827 826 827 827 828 828 827 826 825 824 823 822
769 769 770 770 768 768 768 769 770 775 778 781 784 785 791 798 805 807 808 811 814 817 819 823 825 826 825 827 828 829 829 829 828 827 828 827 827 827 825 825 824 824 823
771 771 771 773 774 774 775 778 781 784 788 793 797 798 799 804 808 810 811 812 816 820 823 824 826 827 827 827 828 830 830 829 829 828 828 828 827 826 827 826 825 824 823
774 776 777 779 781 781 782 784 787 789 793 797 800 802 805 808 811 814 815 816 818 820 822 824 827 827 828 828 830 830 830 830 829 827 828 826 827 826 826 826 825 823 823
778 781 782 783 785 788 789 789 791 794 797 798 801 805 808 809 812 814 816 818 820 821 824 826 827 829 830 830 830 829 829 829 828 826 826 826 825 825 825 824 823 822 821
782 784 785 787 789 791 793 794 796 798 800 803 805 805 808 809 812 814 818 821 822 825 828 829 830 829 830 829 829 828 828 828 827 826 826 825 824 824 823 823 821 821 821
784 786 788 790 792 794 796 798 799 800 802 804 806 808 809 811 814 816 819 821 825 827 829 830 830 829 830 828 827 826 826 826 825 824 824 825 824 824 823 820 820 821 821
785 787 789 790 792 794 795 797 800 802 804 806 809 810 812 814 817 820 822 825 827 828 830 831 832 831 830 829 828 829 826 825 823 822 822 823 823 823 822 822 822 822 820
785 787 789 790 792 794 796 797 800 802 804 807 811 814 816 819 820 822 824 826 827 828 830 830 831 831 830 828 827 827 826 824 823 823 823 823 822 822 823 826 824 821 818
785 787 788 789 792 794 796 798 800 803 806 808 812 816 817 819 821 823 824 825 826 828 829 830 830 830 829 828 827 825 824 824 823 823 824 823 823 823 824 824 823 820 818
783 785 788 790 792 794 797 799 802 805 808 811 814 816 817 819 821 822 823 824 826 827 827 828 829 828 828 829 829 825 823 824 824 824 824 824 824 825 825 824 822 821 821
Wind_Speed
33 39 38 38 36 32 30 29 27 22 22 21 21 20 19 18 18 20 20 18 18 17 16 16 14 12 13 15 14 13 14 13 8 11 13 13 14 12 12 13 11 11 11
32 31 34 32 33 35 34 31 29 28 24 24 22 19 20 20 20 20 20 20 19 20 19 18 18 17 17 15 14 14 14 13 13 11 14 14 12 12 12 11 11 11 10
30 31 32 28 27 34 38 38 34 31 29 26 26 25 21 21 20 20 21 21 20 20 20 20 20 19 15 13 13 14 15 14 14 15 13 13 13 11 11 12 12 11 10
32 32 39 32 31 32 35 39 40 37 32 30 28 28 25 22 21 21 21 20 19 21 20 19 19 15 13 11 12 13 13 14 13 13 14 15 13 13 11 11 12 12 11
37 31 42 39 36 33 35 35 37 39 38 33 30 27 24 22 22 20 20 19 18 17 15 13 10 8 10 10 11 11 10 12 11 11 10 11 12 11 8 6 9 11 13
24 32 38 27 35 37 34 32 34 36 39 36 33 29 26 24 21 20 19 18 16 13 12 10 9 7 8 10 11 11 11 10 9 8 8 6 7 6 5 6 7 4 3
15 24 30 30 34 44 45 36 30 37 38 37 38 33 28 24 23 20 18 17 12 10 10 9 7 7 8 8 9 5 5 4 4 5 5 3 3 4 4 5 6 5 4
16 19 21 28 35 38 37 35 30 33 37 34 36 37 31 26 24 21 17 13 9 9 7 6 5 3 4 5 5 4 3 3 3 4 3 3 4 5 5 6 7 9 6
14 19 22 26 32 33 31 33 32 31 30 33 32 31 28 24 23 19 16 13 10 7 4 3 2 1 1 2 2 1 1 3 5 4 3 0 1 4 5 5 10 11 5
19 23 25 26 27 31 31 33 30 29 25 28 27 25 24 21 15 14 14 13 11 9 7 6 5 6 7 8 7 6 3 5 7 5 4 6 4 3 4 7 7 7 5
21 26 31 30 29 27 28 27 27 23 22 24 24 20 18 15 13 13 13 12 13 14 13 10 9 8 7 8 8 5 3 4 5 5 4 3 2 0 1 4 7 8 6
21 25 12 15 22 23 25 25 25 23 25 25 28 24 20 17 14 14 13 14 16 19 16 12 10 9 8 5 5 5 8 7 9 11 11 11 7 4 5 6 6 6 6
21 24 23 14 15 22 21 21 25 27 29 24 25 25 25 26 26 22 24 24 21 20 16 13 17 8 4 8 10 9 9 11 12 13 12 12 11 9 8 8 7 8 9
19 23 20 24 23 20 21 20 17 23 25 26 27 26 26 29 27 24 21 25 21 19 16 11 14 10 9 8 7 7 9 10 11 10 9 9 8 9 9 10 10 11 11
15 17 21 23 28 28 28 27 22 21 17 26 33 36 29 24 24 24 17 18 19 16 14 15 17 16 15 13 12 11 10 9 8 7 8 7 8 9 10 10 10 11 11
14 15 18 21 24 26 26 34 30 33 30 33 33 34 31 26 22 21 17 19 17 18 20 20 19 17 16 14 13 12 12 11 8 6 6 6 8 9 10 10 11 11 12
13 11 13 15 19 21 22 23 26 29 27 26 27 28 26 23 17 16 18 20 19 19 22 18 17 15 14 13 12 12 12 12 11 8 6 5 6 8 9 9 9 10 12
14 9 9 10 14 18 21 24 27 24 24 27 25 25 22 19 16 16 18 19 19 17 16 14 12 9 8 8 7 6 5 5 5 5 5 5 5 7 9 9 8 9 11
17 14 15 13 13 17 22 23 25 26 25 23 21 20 17 17 17 17 17 18 16 13 10 8 5 4 4 4 4 4 5 7 7 7 7 7 7 8 11 10 8 8 9
17 16 15 16 17 17 18 20 21 23 22 20 19 17 16 15 15 14 12 11 10 10 10 11 10 9 8 7 6 8 9 9 9 8 7 7 8 11 11 9 8 7 8
12 12 12 13 13 13 14 16 17 18 18 17 16 14 11 11 10 10 9 9 13 13 12 11 9 8 7 8 9 8 8 8 7 6 7 9 10 11 10 9 9 7 8
11 11 11 13 11 11 11 11 12 14 14 15 14 10 8 10 14 17 16 15 13 11 9 6 6 7 8 8 9 9 8 8 8 9 9 9 9 10 7 4 5 5 6
9 9 10 10 11 12 12 12 13 14 14 14 16 15 15 17 17 15 14 12 10 8 6 5 5 5 6 7 9 10 11 11 11 9 6 6 6 6 6 5 7 9 11
10 11 12 12 13 13 13 15 16 17 20 18 19 19 19 18 15 12 10 8 6 4 3 4 4 5 6 6 8 11 11 10 10 5 3 4 3 4 5 5 8 9 10
14 14 12 12 14 15 17 19 20 20 20 20 19 18 17 15 12 9 7 5 3 2 1 1 3 4 6 9 10 9 8 7 6 3 2 5 7 5 7 7 5 7 9
17 16 16 17 19 21 22 22 21 21 21 20 18 16 14 12 10 8 5 3 2 1 1 2 3 5 5 7 8 6 5 4 4 6 6 5 5 6 4 6 5 8 7
Wind_Direction
231 233 228 230 231 236 237 235 236 234 230 229 230 238 243 245 242 237 244 253 257 261 262 265 267 274 275 276 269 267 267 264 254 288 292 302 287 288 295 301 309 311 309
237 226 229 230 237 235 239 240 236 238 240 239 236 234 234 238 238 237 244 251 257 258 260 257 266 274 270 270 270 274 279 276 260 272 289 297 291 284 287 294 299 304 306
214 226 228 229 243 248 247 246 242 239 241 240 238 240 240 240 233 238 249 256 260 259 260 264 265 264 262 267 275 279 285 285 269 266 283 295 300 295 288 287 289 291 292
208 226 232 239 244 250 249 250 248 245 242 241 239 236 235 232 241 248 253 254 257 259 260 260 262 267 262 269 277 286 288 286 283 273 275 281 288 292 291 285 286 290 283
216 214 222 232 239 240 246 247 251 249 245 244 241 234 231 237 244 248 249 252 257 261 250 256 259 265 264 271 276 278 276 280 280 273 268 276 284 300 297 303 300 302 300
204 216 228 229 223 233 233 246 245 248 244 238 239 237 236 240 242 245 244 243 245 251 240 238 235 248 266 276 278 280 287 290 287 282 282 274 285 289 306 318 314 325 318
257 243 238 236 236 239 242 240 236 240 241 237 235 237 236 237 238 238 232 232 235 231 226 230 240 261 276 283 293 295 300 310 313 305 307 329 339 354 345 3 3 345 322
289 273 255 235 223 228 222 227 232 233 234 233 237 239 241 238 233 230 228 218 213 211 212 221 229 266 304 314 313 294 308 353 9 6 5 45 58 43 20 19 28 10 4
315 285 263 246 230 226 218 220 226 230 230 230 233 235 228 221 220 224 211 203 198 183 170 174 166 205 105 41 5 328 57 37 8 347 309 239 346 29 24 39 34 31 40
308 295 283 251 230 223 218 215 218 221 226 230 220 216 211 205 206 196 193 195 172 161 136 121 118 93 76 71 52 43 39 20 18 21 57 63 46 58 60 52 59 56 19
333 311 284 258 224 223 220 204 205 208 211 209 196 178 173 179 175 171 189 185 175 147 134 112 103 97 84 72 57 32 18 14 30 35 41 50 12 68 36 19 41 38 29
3 354 327 225 212 212 207 203 199 191 175 157 149 141 139 139 152 162 174 182 164 148 134 126 110 72 62 83 101 83 72 66 66 70 70 71 80 66 61 47 26 18 7
25 17 42 85 138 168 173 164 156 159 152 142 132 122 114 118 113 123 139 139 142 131 119 99 96 98 127 110 102 94 76 64 69 74 69 65 63 60 42 31 22 7 355
40 38 38 73 78 87 106 123 131 143 141 137 125 119 117 115 110 110 106 114 105 99 106 127 112 114 96 128 104 103 68 66 70 75 69 63 58 49 36 23 12 0 355
68 63 61 60 73 77 82 90 97 107 122 118 122 118 117 113 116 104 105 94 105 121 142 129 116 110 101 90 83 78 67 66 73 65 57 54 43 33 27 19 10 2 357
90 81 74 75 76 77 76 85 90 101 108 113 117 119 113 112 106 113 123 122 129 132 125 113 100 93 85 78 74 69 59 55 55 51 48 41 27 16 7 3 1 1 355
92 95 91 95 95 91 87 88 89 92 96 97 99 101 106 112 124 124 122 122 117 113 106 106 105 99 93 84 72 63 63 60 52 41 30 31 23 9 360 357 3 3 357
116 109 110 105 110 113 111 112 110 104 101 102 110 113 116 123 131 128 125 119 113 111 110 110 105 96 84 73 57 48 42 27 15 8 355 346 348 343 333 334 348 354 353
118 114 115 111 114 117 120 122 120 119 116 116 117 118 119 115 111 112 121 118 116 111 104 94 96 85 56 32 26 14 357 350 336 331 331 332 325 326 325 327 327 342 342
118 120 123 121 122 124 124 123 124 120 117 116 114 112 118 121 119 116 114 111 107 105 107 103 94 85 72 57 30 6 349 338 335 335 330 331 334 328 320 319 313 306 321
130 132 132 131 130 126 128 132 128 123 120 117 118 112 118 129 133 133 128 121 122 115 109 101 91 69 40 14 356 352 358 4 5 5 354 347 346 342 337 326 311 310 318
145 146 146 144 147 152 149 150 143 139 135 132 134 125 114 130 133 130 127 123 120 116 109 90 58 38 27 21 16 10 4 354 348 345 345 345 347 346 328 349 55 39 19
170 163 171 175 166 166 170 175 173 170 161 156 152 140 137 134 131 129 128 130 128 123 102 68 36 30 21 15 7 355 350 343 332 323 326 342 360 21 48 68 61 29 9
178 167 157 155 161 166 164 162 168 167 161 155 152 150 150 147 141 136 133 132 136 126 97 62 31 20 20 18 5 349 336 329 331 312 319 341 4 23 78 39 4 359 12
189 183 182 182 181 174 164 158 156 153 153 153 153 152 150 150 150 148 147 144 135 128 124 28 9 6 358 348 344 338 334 340 342 353 50 79 105 75 19 7 42 58 50
198 194 189 184 177 168 160 154 152 152 155 160 164 165 162 158 152 149 145 148 166 187 331 339 321 309 309 315 323 348 15 36 64 94 102 85 41 15 31 78 81 65 57